Wind_Speed
24 25 25 25 27 28 29 29 29 30 30 30 30 29 27 27 26 27 30 30 30 30 31 33 34 36 36 37 38 39 39 39 38 36 35 33 33 34 32 31 31 32 33 34 31 27 24 22 23 25 27 29 29 31 39 48 54 55 55 54 54 53 53
22 21 19 18 19 21 24 25 25 24 24 24 24 23 24 26 27 27 27 27 28 29 31 32 33 35 35 34 36 38 39 37 35 32 32 32 33 34 33 30 29 31 33 33 31 30 28 25 24 24 25 27 29 28 29 34 42 49 53 53 53 53 53
19 19 18 17 18 18 19 20 20 19 20 21 21 23 25 26 27 26 23 22 25 28 30 31 32 34 33 31 33 37 37 34 31 30 30 30 31 32 32 31 30 30 31 32 31 30 29 28 26 26 25 25 26 27 27 27 29 35 41 45 48 50 52
18 19 20 21 22 23 22 21 21 19 19 21 22 25 26 27 28 26 22 21 24 26 28 30 33 34 33 30 30 32 33 31 30 29 28 28 29 29 29 30 31 31 31 30 29 29 29 29 27 27 27 26 25 26 26 27 27 28 30 33 38 42 46
20 21 22 23 25 25 24 25 25 24 23 24 25 26 27 27 28 26 21 20 21 23 25 27 32 35 34 32 30 29 29 30 30 29 28 28 30 30 29 28 29 32 33 31 29 28 28 27 27 27 27 27 27 27 27 27 27 28 29 30 32 35 39
21 22 23 23 24 24 25 26 28 28 28 28 27 28 28 29 29 27 23 19 18 21 23 24 27 32 34 34 31 29 29 30 31 30 30 30 30 30 29 28 27 29 32 33 31 28 27 26 26 27 28 28 28 29 29 28 28 28 29 31 32 34 36
23 23 22 22 22 23 24 26 28 30 31 30 30 30 30 30 30 28 24 20 18 21 22 21 22 27 32 33 30 29 31 31 31 31 31 30 29 29 29 28 27 26 27 29 30 28 27 27 25 25 27 28 29 29 29 29 29 30 30 31 33 34 35
22 21 21 21 21 21 23 24 26 28 29 30 31 32 32 31 32 31 27 22 20 20 19 20 21 22 26 29 28 27 29 30 30 31 30 29 29 30 29 27 25 24 24 25 26 26 26 26 25 25 26 27 29 31 31 30 30 31 32 33 34 34 35
19 19 19 18 18 19 20 22 23 24 25 27 29 32 32 32 32 33 31 26 22 21 22 22 21 19 20 23 25 25 25 27 28 29 30 29 29 29 27 24 23 22 22 24 24 24 25 26 26 26 26 27 30 31 32 33 33 33 32 33 34 34 34
16 16 16 16 16 16 17 18 19 18 19 21 24 28 31 33 33 33 34 31 26 23 24 24 20 20 21 21 22 22 22 23 23 25 27 28 29 29 27 24 21 21 22 23 24 24 24 26 27 27 27 28 28 28 31 33 34 34 33 33 34 34 34
15 13 13 14 14 14 14 15 14 14 14 16 18 22 27 31 34 34 35 36 32 26 24 23 20 21 22 22 22 22 21 21 21 22 23 25 26 27 27 24 22 22 22 23 25 25 25 27 28 28 28 28 27 28 31 32 33 34 36 36 36 36 36
14 13 12 12 12 11 11 10 9 11 12 12 14 17 21 26 31 34 36 38 36 31 26 23 21 22 23 23 23 22 21 20 21 21 22 23 24 26 27 26 24 22 22 23 25 26 26 27 28 28 28 29 29 30 30 32 33 35 36 37 37 37 37
14 13 13 12 12 12 11 8 5 6 9 11 12 14 18 23 27 31 36 39 39 35 30 26 23 23 24 24 24 24 23 21 21 22 23 23 25 26 28 28 27 24 22 21 22 24 26 27 28 28 28 28 29 30 30 33 35 36 36 36 37 37 35
15 14 14 13 13 12 10 7 5 5 5 8 10 12 16 22 24 28 34 39 41 39 35 30 25 24 24 24 24 26 26 24 23 23 24 24 25 27 29 30 29 26 24 23 22 23 25 27 27 26 25 25 27 28 29 32 34 35 35 35 35 35 34
17 15 15 14 13 12 10 7 6 4 3 5 8 10 13 18 21 23 29 35 39 39 37 33 29 26 25 25 26 27 28 27 26 25 25 26 26 27 29 30 30 29 27 26 24 23 23 25 27 26 23 22 23 25 26 29 31 32 33 34 33 34 33
17 16 16 13 13 14 13 10 8 6 4 6 10 13 17 20 21 21 21 26 33 37 37 35 32 29 28 27 27 28 28 28 27 27 27 28 28 28 28 30 31 31 29 26 24 23 21 22 25 26 23 20 20 21 24 28 31 33 33 34 34 34 33
16 16 16 14 13 15 15 13 12 10 8 8 9 12 15 16 20 22 19 17 22 30 34 35 34 31 29 28 28 28 28 28 28 28 29 29 28 28 28 28 29 30 30 28 25 22 20 20 21 23 22 19 17 18 21 26 31 33 34 34 34 34 34
17 14 14 14 13 14 16 16 14 12 10 10 10 9 10 11 12 16 19 16 14 18 25 31 33 32 30 29 29 28 28 28 28 28 30 31 30 29 29 28 27 27 29 30 27 23 21 20 20 20 20 19 18 18 19 22 27 30 32 33 33 33 32
19 16 14 13 13 13 15 17 16 13 11 10 11 10 7 8 9 10 14 18 16 14 15 20 24 26 26 26 25 24 24 24 24 26 30 32 31 30 30 29 28 26 26 28 29 26 23 22 21 20 19 19 19 19 19 19 21 24 28 29 30 30 30
21 19 17 15 13 13 14 16 16 14 11 10 12 12 9 7 7 6 7 13 16 17 16 16 18 20 20 21 20 18 18 19 20 24 28 30 30 29 28 27 27 26 25 26 28 28 25 25 23 21 20 20 19 19 20 20 19 20 22 24 26 27 27
22 21 20 17 14 15 15 14 15 16 13 10 11 13 12 11 11 10 8 8 11 14 15 16 17 18 17 17 17 17 18 19 21 22 25 27 28 28 25 23 23 23 23 23 26 28 28 26 23 22 22 22 21 20 20 20 20 19 18 19 21 22 23
23 23 23 19 15 18 19 14 14 17 16 12 9 11 15 16 16 15 15 13 12 13 14 14 16 17 18 19 20 21 21 20 20 20 21 23 24 24 22 20 20 21 21 22 26 28 28 25 21 21 23 24 24 23 22 21 21 20 19 19 19 18 19
26 26 27 23 20 23 22 16 14 16 15 12 10 8 10 15 17 18 17 16 14 13 14 15 15 16 18 20 22 23 22 21 20 20 21 22 23 22 22 21 21 21 22 23 25 26 25 22 21 21 23 26 26 25 24 23 23 22 21 21 20 18 16
28 28 29 28 27 27 24 18 15 13 11 10 12 11 7 6 10 12 13 11 10 10 11 13 14 15 17 19 21 22 23 22 22 22 22 23 24 24 23 24 23 23 23 24 25 25 24 24 23 23 24 26 26 25 24 24 23 22 22 22 21 19 17
29 28 30 31 32 30 24 18 15 11 8 9 10 10 8 3 1 4 6 7 7 7 7 7 8 10 12 15 17 19 21 23 24 25 25 25 25 25 26 27 26 24 25 26 27 27 27 25 23 23 24 25 25 25 25 24 24 23 22 21 21 19 18
29 29 30 31 31 28 22 18 14 10 8 9 8 7 6 4 3 2 3 4 4 4 4 4 4 5 7 9 10 13 16 19 21 24 26 27 26 25 26 29 30 28 27 27 27 26 26 25 23 23 24 24 24 24 23 23 24 24 23 22 20 19 19
27 27 29 31 29 23 19 16 14 12 12 11 7 6 5 4 4 3 3 3 3 4 5 5 4 4 5 6 7 8 11 13 16 18 22 25 27 26 25 28 31 30 28 27 27 25 24 24 25 25 25 25 24 23 21 21 22 23 24 23 22 20 20
25 25 28 30 28 21 16 15 15 14 14 13 10 7 6 5 5 6 6 5 4 3 3 3 2 2 3 4 4 5 6 7 9 12 15 19 23 26 26 26 29 30 28 27 29 28 27 26 27 28 29 29 28 26 23 21 20 21 22 23 24 23 22
20 21 25 28 26 20 16 16 15 15 15 13 12 12 11 9 9 8 7 5 3 3 2 1 1 2 3 4 4 5 6 6 5 6 8 11 16 23 27 27 28 31 31 31 31 30 29 29 29 29 30 30 31 31 27 23 21 22 23 23 23 24 24
15 15 20 24 22 18 16 16 14 13 14 14 13 12 12 12 11 9 6 4 3 3 2 0 3 5 5 5 6 6 6 4 4 3 4 5 8 16 23 27 27 27 29 31 33 32 30 30 31 31 31 31 32 33 31 27 23 23 25 25 23 23 23
11 10 13 18 18 16 14 12 11 11 11 12 12 12 12 12 11 8 5 4 4 3 2 2 2 2 2 2 2 2 1 2 3 2 2 4 5 8 15 21 24 24 24 27 30 31 31 30 30 31 32 32 32 34 35 32 27 25 27 26 23 21 22
11 10 9 11 13 14 12 10 11 11 12 13 13 12 12 12 11 9 6 6 6 6 5 5 5 4 4 4 3 2 1 0 1 2 2 2 2 3 6 10 15 19 21 23 26 29 31 32 33 34 34 34 34 36 36 33 29 28 29 27 22 19 20
12 12 10 9 10 11 12 13 13 13 13 14 13 12 12 12 11 10 8 7 7 8 9 9 8 7 7 7 7 6 5 5 6 6 5 5 3 3 4 5 7 10 12 16 20 25 29 32 33 34 35 36 36 36 35 33 31 31 30 26 22 19 19
12 12 12 11 9 9 11 12 13 13 14 14 13 13 13 11 10 10 8 7 7 9 10 10 9 9 9 8 8 9 8 8 7 6 5 5 4 3 3 5 7 8 9 10 12 16 21 25 28 30 31 32 33 33 32 31 31 30 28 24 22 21 20
14 13 13 12 10 10 11 11 12 13 13 13 13 13 11 9 9 10 9 9 10 11 11 11 10 10 11 10 10 10 9 7 7 6 5 4 3 2 1 2 6 8 9 9 10 10 12 15 18 21 23 24 25 27 27 27 27 26 24 22 20 20 19
17 14 12 10 9 10 11 11 12 13 13 12 11 10 10 10 10 11 11 11 13 13 12 12 11 11 12 11 10 9 8 7 6 4 3 3 2 1 1 2 5 8 10 10 10 10 10 12 13 14 16 17 19 20 21 22 22 21 20 19 18 17 17
Wind_Direction
284 285 284 278 272 268 267 267 267 267 265 263 259 255 255 259 259 259 260 261 260 251 238 236 240 240 240 240 241 242 242 241 242 242 244 241 235 232 236 237 234 235 241 246 248 252 251 244 238 235 233 233 234 232 228 225 222 222 223 222 221 221 223
285 286 286 283 276 272 270 268 267 267 264 261 257 254 255 254 253 256 257 255 256 250 238 236 241 241 240 239 240 242 241 239 238 238 241 241 235 229 232 236 234 233 237 241 242 244 247 245 239 236 234 233 232 231 229 226 222 221 221 221 220 219 221
284 284 283 280 274 272 267 262 266 269 262 256 252 250 249 247 249 254 253 247 248 246 238 237 240 239 239 242 243 241 238 234 234 236 238 239 235 228 227 231 232 233 235 238 240 240 241 242 241 238 236 236 235 233 231 228 224 222 221 220 219 218 219
282 280 278 273 268 266 258 252 258 261 252 245 244 244 246 246 249 253 250 243 244 243 239 239 240 237 238 243 243 238 232 229 232 236 236 237 234 229 228 230 229 231 234 236 239 239 238 238 240 240 237 236 236 234 233 231 228 226 224 223 220 218 217
282 280 280 277 272 268 260 251 251 252 247 244 244 245 246 246 249 252 250 243 239 239 240 242 242 239 240 244 241 233 229 229 232 234 234 237 237 233 233 233 230 229 231 234 236 238 239 236 236 236 235 235 235 233 231 229 228 227 226 224 222 218 215
285 285 284 282 278 272 263 254 249 249 248 245 244 245 245 246 249 251 251 246 238 235 238 243 245 242 242 244 239 233 233 233 232 230 232 237 238 235 234 236 235 230 229 231 233 236 239 238 234 234 233 231 231 231 230 227 225 224 224 224 223 221 219
295 294 290 284 278 272 267 259 252 249 248 246 244 244 244 245 249 251 251 248 239 232 233 238 244 246 244 240 234 232 235 235 230 228 231 233 232 231 234 238 240 235 229 229 230 232 238 239 237 236 234 231 229 228 228 228 225 223 222 223 223 223 222
304 301 296 289 283 276 270 264 257 252 250 248 245 244 244 246 249 253 253 248 243 240 238 235 237 243 244 236 230 230 234 233 229 229 231 230 228 230 234 237 240 238 232 229 227 228 233 236 237 237 235 232 228 224 224 225 225 224 224 224 224 224 224
311 307 301 295 289 283 276 270 264 258 254 252 246 244 245 246 248 253 253 250 244 242 243 240 232 230 232 230 225 227 231 233 232 232 233 232 231 232 232 233 238 237 232 230 229 229 232 234 235 236 235 233 229 226 226 225 223 222 223 225 227 227 226
320 316 310 305 298 290 282 277 274 269 262 257 250 245 245 246 246 248 251 251 246 238 238 239 229 219 219 219 217 220 226 232 234 234 234 234 234 233 229 228 233 233 230 230 231 233 235 236 235 234 235 238 237 234 231 228 224 222 221 221 224 226 227
333 330 323 315 308 300 292 285 283 278 268 260 253 247 246 246 244 243 245 247 245 240 237 235 227 218 215 213 212 217 224 230 233 234 233 232 233 233 228 226 229 232 232 231 231 234 237 238 238 236 233 237 241 239 236 233 230 226 222 220 220 222 223
345 346 342 333 328 325 318 308 295 281 269 261 253 247 246 248 245 242 240 242 242 241 240 237 229 221 218 216 215 218 224 230 233 234 234 231 230 230 228 227 229 235 239 237 234 235 237 238 241 242 237 234 236 239 239 236 232 229 226 224 223 224 225
355 357 356 350 347 348 349 353 337 300 280 266 256 249 247 248 248 242 238 239 240 239 240 241 236 228 223 220 220 222 225 231 236 236 236 234 231 228 227 228 230 232 238 244 243 241 240 240 241 243 242 238 237 238 239 236 232 229 228 227 227 228 230
1 360 358 355 350 343 346 2 4 338 307 276 262 254 247 246 248 244 238 237 238 238 238 240 240 236 229 225 225 227 229 234 240 241 238 236 234 230 226 228 230 230 232 240 247 249 248 245 242 242 245 246 244 243 242 239 236 232 230 230 230 231 233
2 359 357 354 345 332 327 339 344 335 332 310 291 276 261 253 251 247 240 236 236 237 237 237 239 237 233 230 230 231 233 236 242 245 239 234 236 235 229 229 230 230 230 234 241 248 252 250 244 241 245 250 249 247 246 244 242 238 234 231 231 231 232
2 1 358 355 347 336 328 330 331 319 312 314 304 295 286 274 261 254 248 238 234 235 235 235 237 237 235 234 234 234 237 239 244 247 239 232 236 238 234 231 230 230 230 232 236 243 252 256 249 241 241 247 248 247 246 241 237 235 232 229 228 228 229
0 359 356 354 352 346 338 333 330 320 307 296 296 309 314 297 269 255 253 247 235 233 234 234 235 237 238 239 239 240 242 243 246 246 238 232 234 235 234 234 233 232 232 232 234 238 246 253 250 241 239 241 242 243 243 238 232 230 228 227 226 226 227
359 355 351 349 349 347 338 331 328 320 305 285 281 306 340 338 300 266 256 256 246 234 233 234 236 239 242 243 245 246 247 247 245 241 234 230 231 233 234 236 236 236 235 233 233 234 238 244 246 242 237 235 233 233 234 235 233 231 228 225 225 225 225
0 356 353 351 350 349 338 327 323 320 307 284 273 280 299 316 315 290 262 258 259 251 239 231 230 232 236 240 245 247 246 243 240 235 231 229 231 236 238 237 236 237 239 236 230 229 233 239 242 240 236 231 229 227 224 226 232 233 230 226 225 226 223
1 356 355 355 353 353 348 334 326 323 316 292 269 265 269 273 276 276 257 248 249 252 249 242 233 229 230 235 241 245 243 238 234 232 231 231 234 237 238 236 234 239 246 241 228 224 233 240 242 242 237 229 225 222 217 216 220 226 230 229 228 227 225
0 355 354 355 352 351 352 346 334 328 324 310 277 257 254 256 257 259 251 233 232 237 241 241 240 238 236 236 238 241 241 238 235 233 232 234 235 236 237 237 238 244 249 242 227 224 231 237 240 244 237 227 222 219 215 213 215 218 223 227 229 229 229
359 356 355 358 358 356 357 354 340 331 329 324 302 264 248 245 249 256 253 244 240 241 242 241 235 232 230 229 232 236 237 238 238 234 233 235 235 234 235 236 239 244 244 236 229 227 228 229 237 241 232 224 222 220 215 214 217 219 220 223 228 230 232
1 359 357 359 359 357 359 359 343 335 337 341 339 314 264 240 239 250 253 249 244 243 247 250 247 242 239 235 235 236 235 234 234 232 234 237 237 236 234 232 234 236 235 231 229 227 225 228 235 234 225 221 219 216 213 214 216 217 217 219 222 223 225
1 358 356 356 353 353 359 3 351 342 347 355 357 350 325 256 234 244 252 256 258 254 252 251 248 248 246 242 242 243 240 237 232 228 230 234 236 236 235 232 231 230 228 226 223 221 223 228 231 228 223 220 216 213 213 214 214 213 213 214 216 216 212
357 356 355 351 348 352 1 3 354 350 350 346 350 357 358 359 294 258 260 265 269 266 261 253 245 244 242 240 241 242 243 243 238 231 227 230 234 236 234 232 229 226 223 222 219 221 226 229 228 226 224 221 217 216 216 213 210 209 211 211 212 212 208
355 355 354 351 351 358 7 8 4 9 7 352 358 25 34 28 18 329 285 277 280 282 283 276 264 258 252 245 243 242 241 244 244 239 232 230 231 231 230 230 228 223 221 220 219 222 226 225 224 223 220 218 219 219 216 211 207 207 209 211 213 212 209
355 355 354 356 0 6 12 15 16 18 13 9 23 54 51 24 7 356 343 327 304 287 278 268 256 253 250 249 252 253 248 245 246 244 238 234 233 228 224 225 227 225 222 220 220 221 221 219 220 220 216 214 216 216 212 209 207 207 208 209 210 212 213
355 357 357 3 9 10 12 22 25 19 14 17 25 28 20 8 353 339 333 324 300 279 273 264 256 256 250 242 245 256 261 257 252 246 239 235 233 228 222 222 226 225 221 220 221 221 218 215 216 218 216 214 215 214 209 206 209 212 212 212 210 210 212
357 360 3 12 19 20 22 30 32 23 17 18 18 11 3 359 352 340 332 328 332 -0 17 20 295 263 250 237 241 253 263 272 276 267 250 237 231 227 222 220 222 222 219 219 220 219 215 212 213 216 217 218 219 219 212 207 211 215 216 217 215 211 212
355 3 15 25 31 36 39 40 35 26 21 19 18 13 7 3 360 353 348 355 35 58 54 246 242 247 246 246 256 261 261 265 280 290 272 248 234 226 221 220 221 221 220 220 219 217 215 213 213 215 215 215 218 219 215 211 216 218 217 218 216 212 213
345 360 27 36 36 41 48 45 32 25 19 14 13 13 11 10 8 4 5 28 58 72 85 126 166 211 239 245 249 245 236 269 288 288 255 242 238 226 219 219 221 223 223 222 220 219 220 220 219 219 217 214 215 215 213 212 215 217 216 215 215 213 214
351 353 20 35 33 32 28 14 5 6 6 6 9 12 13 13 12 14 28 52 61 61 65 79 91 92 81 74 79 97 122 66 46 77 103 155 204 206 200 204 212 219 224 225 223 223 224 224 223 222 220 216 214 213 211 209 211 213 213 210 208 209 213
2 355 360 12 22 21 11 360 356 1 5 5 5 9 14 16 14 16 30 51 58 59 60 62 67 74 76 71 67 71 80 83 81 83 85 86 99 136 149 154 168 186 203 215 221 223 224 224 223 220 217 214 211 210 210 210 209 208 207 206 203 203 207
10 1 357 2 9 12 11 6 2 5 8 4 2 9 14 11 9 18 32 48 60 68 70 67 67 71 69 61 60 70 80 81 78 79 78 73 73 88 123 148 153 150 157 178 198 211 218 221 220 217 214 212 209 208 208 210 208 205 202 200 201 201 200
8 6 6 9 10 14 16 10 6 11 10 1 360 9 5 353 7 33 47 57 66 73 77 76 76 76 72 66 67 75 80 78 73 75 77 73 73 80 102 175 175 164 157 155 161 176 193 202 206 208 209 210 210 208 206 205 204 201 198 196 200 203 202
7 10 17 22 23 25 23 13 6 10 7 357 358 6 0 359 24 48 58 65 69 73 76 78 81 81 76 71 70 71 69 64 62 65 67 57 59 96 144 212 197 180 171 165 162 163 169 176 184 191 195 198 201 202 201 199 197 195 196 198 202 205 204
Height
1394 1392 1391 1391 1390 1391 1391 1391 1392 1392 1392 1392 1392 1393 1394 1395 1396 1396 1395 1396 1396 1396 1398 1399 1400 1401 1402 1404 1406 1407 1408 1409 1410 1411 1412 1413 1414 1416 1417 1419 1419 1419 1419 1419 1421 1423 1424 1425 1426 1427 1429 1431 1433 1435 1437 1440 1444 1448 1452 1456 1461 1465 1469
1390 1389 1388 1387 1387 1387 1387 1387 1387 1388 1387 1388 1388 1389 1390 1391 1391 1392 1392 1392 1392 1393 1395 1395 1396 1397 1398 1400 1401 1402 1403 1405 1406 1407 1408 1408 1410 1411 1413 1414 1415 1416 1416 1416 1418 1420 1421 1422 1424 1424 1426 1428 1430 1432 1434 1435 1438 1441 1444 1448 1453 1457 1462
1387 1386 1385 1385 1384 1384 1383 1383 1384 1384 1384 1384 1385 1385 1386 1386 1387 1388 1388 1388 1388 1389 1391 1392 1392 1393 1395 1396 1397 1398 1399 1401 1402 1403 1404 1405 1405 1407 1409 1410 1412 1413 1413 1414 1415 1416 1418 1419 1421 1422 1424 1425 1427 1430 1431 1432 1434 1437 1439 1442 1446 1450 1455
1384 1383 1382 1381 1381 1380 1380 1380 1379 1380 1380 1380 1381 1381 1382 1382 1383 1383 1384 1384 1385 1386 1387 1388 1388 1389 1391 1393 1393 1394 1395 1397 1399 1399 1400 1401 1402 1404 1405 1407 1408 1409 1410 1411 1412 1413 1415 1417 1418 1420 1421 1423 1425 1427 1428 1429 1431 1433 1436 1439 1442 1445 1449
1381 1380 1379 1378 1377 1376 1376 1376 1375 1376 1376 1376 1377 1377 1378 1378 1379 1379 1380 1381 1381 1382 1383 1384 1385 1386 1387 1389 1389 1390 1392 1393 1395 1396 1397 1398 1399 1401 1402 1403 1405 1406 1407 1408 1409 1410 1412 1414 1416 1417 1418 1420 1422 1423 1425 1426 1427 1429 1433 1436 1439 1442 1445
1378 1376 1375 1374 1373 1372 1372 1372 1372 1372 1372 1372 1373 1374 1374 1375 1375 1376 1376 1377 1378 1379 1380 1381 1381 1382 1384 1385 1385 1386 1388 1390 1392 1393 1394 1395 1396 1397 1399 1399 1401 1402 1404 1404 1405 1407 1408 1410 1412 1414 1415 1416 1418 1420 1421 1423 1424 1426 1429 1432 1435 1438 1442
1374 1373 1371 1370 1369 1368 1368 1368 1368 1368 1368 1369 1370 1370 1371 1371 1371 1372 1373 1374 1375 1376 1377 1377 1378 1379 1380 1381 1382 1384 1385 1387 1388 1390 1391 1392 1393 1394 1395 1396 1397 1399 1400 1401 1402 1404 1404 1406 1409 1410 1412 1413 1415 1417 1419 1420 1421 1423 1425 1428 1432 1435 1438
1371 1369 1368 1367 1365 1365 1364 1363 1363 1364 1364 1365 1366 1367 1368 1368 1368 1368 1369 1371 1371 1372 1373 1374 1374 1375 1376 1378 1379 1381 1382 1384 1385 1387 1387 1388 1390 1391 1392 1393 1394 1395 1396 1397 1399 1400 1401 1402 1405 1407 1408 1410 1411 1412 1414 1416 1417 1419 1421 1425 1428 1431 1435
1368 1366 1364 1363 1362 1361 1361 1359 1359 1359 1360 1361 1362 1363 1364 1365 1365 1365 1365 1367 1368 1369 1370 1371 1371 1372 1373 1375 1377 1378 1380 1381 1383 1384 1385 1386 1387 1388 1389 1391 1391 1392 1393 1394 1395 1397 1398 1399 1400 1402 1404 1406 1407 1408 1410 1412 1413 1415 1418 1422 1425 1428 1431
1365 1364 1362 1361 1360 1358 1358 1357 1356 1356 1357 1357 1358 1359 1360 1361 1362 1362 1362 1363 1365 1366 1367 1368 1369 1369 1371 1372 1374 1376 1377 1379 1380 1381 1382 1383 1384 1385 1387 1388 1389 1389 1390 1391 1392 1393 1394 1395 1396 1398 1400 1401 1404 1406 1408 1409 1410 1412 1415 1418 1421 1424 1427
1363 1362 1360 1358 1357 1356 1355 1354 1354 1354 1354 1354 1355 1356 1357 1357 1358 1359 1359 1359 1361 1363 1364 1365 1366 1367 1368 1370 1371 1373 1375 1376 1377 1378 1379 1381 1382 1383 1384 1385 1386 1387 1388 1389 1390 1391 1392 1392 1393 1394 1397 1399 1401 1403 1405 1406 1408 1410 1411 1414 1416 1419 1421
1361 1360 1359 1357 1356 1355 1353 1353 1352 1352 1352 1352 1352 1353 1354 1354 1354 1355 1356 1356 1358 1360 1361 1362 1364 1364 1366 1367 1369 1371 1372 1374 1375 1376 1377 1378 1379 1380 1382 1383 1384 1385 1386 1387 1388 1388 1389 1390 1391 1392 1394 1396 1398 1400 1402 1404 1405 1407 1409 1411 1413 1415 1417
1361 1359 1358 1356 1354 1353 1352 1351 1351 1350 1350 1350 1350 1350 1351 1351 1350 1351 1352 1353 1354 1356 1358 1359 1361 1362 1363 1365 1366 1368 1370 1371 1372 1373 1375 1376 1377 1378 1379 1380 1381 1382 1383 1384 1385 1386 1386 1387 1389 1390 1391 1393 1395 1396 1399 1401 1402 1404 1406 1408 1410 1412 1414
1360 1358 1357 1355 1354 1352 1351 1351 1350 1349 1348 1348 1348 1348 1348 1348 1347 1347 1348 1349 1350 1352 1355 1356 1358 1359 1360 1362 1364 1365 1367 1368 1370 1371 1372 1373 1374 1374 1375 1377 1378 1379 1381 1382 1383 1383 1383 1385 1386 1387 1389 1391 1392 1394 1396 1397 1399 1401 1403 1405 1407 1409 1412
1359 1357 1356 1355 1353 1351 1350 1350 1349 1348 1347 1347 1346 1346 1345 1344 1344 1343 1343 1345 1346 1348 1351 1353 1355 1356 1357 1359 1361 1362 1364 1365 1367 1368 1369 1370 1370 1371 1372 1373 1374 1376 1378 1379 1379 1380 1381 1382 1383 1385 1386 1388 1390 1391 1393 1395 1397 1399 1401 1402 1404 1406 1408
1359 1357 1355 1354 1353 1351 1349 1348 1348 1346 1346 1345 1345 1344 1343 1341 1340 1340 1340 1341 1342 1345 1347 1350 1351 1353 1354 1356 1357 1359 1361 1363 1364 1364 1365 1366 1367 1368 1369 1370 1371 1373 1374 1376 1377 1378 1379 1380 1381 1382 1384 1385 1386 1388 1390 1392 1394 1396 1398 1399 1401 1402 1404
1359 1357 1355 1354 1352 1350 1348 1347 1346 1345 1344 1343 1343 1342 1341 1339 1337 1338 1338 1338 1339 1341 1344 1346 1348 1350 1351 1353 1354 1356 1358 1359 1360 1361 1362 1363 1364 1365 1366 1367 1368 1370 1371 1373 1374 1375 1377 1378 1378 1379 1381 1382 1383 1385 1386 1388 1390 1392 1394 1395 1396 1398 1399
1359 1357 1355 1353 1351 1350 1348 1346 1345 1344 1342 1342 1341 1340 1339 1337 1336 1336 1336 1337 1338 1339 1341 1343 1345 1347 1348 1349 1351 1353 1354 1355 1356 1357 1358 1359 1360 1362 1362 1363 1365 1366 1368 1369 1371 1373 1374 1375 1376 1377 1378 1379 1380 1381 1383 1384 1386 1389 1391 1392 1392 1394 1396
1358 1356 1355 1353 1351 1349 1347 1345 1343 1342 1341 1340 1340 1339 1338 1337 1336 1336 1335 1336 1337 1338 1339 1340 1342 1344 1345 1346 1348 1349 1350 1351 1352 1353 1354 1355 1357 1358 1358 1359 1361 1363 1364 1366 1368 1370 1371 1372 1374 1375 1376 1377 1378 1379 1380 1382 1384 1386 1388 1389 1390 1391 1392
1358 1355 1354 1352 1350 1349 1347 1344 1342 1340 1339 1338 1338 1337 1337 1336 1336 1336 1335 1335 1336 1337 1338 1339 1340 1341 1342 1344 1345 1346 1347 1348 1350 1350 1351 1352 1353 1354 1354 1356 1358 1360 1361 1363 1365 1366 1368 1369 1371 1373 1374 1375 1376 1377 1378 1380 1382 1383 1385 1387 1387 1388 1389
1357 1355 1353 1351 1349 1348 1346 1343 1341 1339 1337 1336 1335 1335 1335 1335 1335 1335 1335 1335 1335 1336 1336 1337 1338 1339 1340 1341 1342 1343 1345 1346 1347 1348 1348 1349 1350 1350 1352 1354 1356 1358 1359 1360 1362 1364 1365 1367 1369 1370 1372 1373 1374 1375 1376 1378 1379 1381 1383 1385 1385 1386 1388
1357 1354 1351 1349 1348 1346 1344 1342 1339 1337 1335 1334 1333 1332 1332 1333 1333 1334 1334 1334 1335 1335 1335 1336 1336 1337 1338 1339 1340 1341 1342 1343 1344 1345 1346 1346 1347 1349 1351 1352 1354 1355 1356 1358 1359 1361 1362 1364 1365 1367 1368 1370 1372 1373 1375 1376 1378 1380 1382 1383 1384 1385 1387
1356 1353 1350 1348 1346 1344 1342 1340 1338 1336 1334 1332 1331 1330 1329 1330 1331 1331 1332 1332 1333 1333 1334 1334 1334 1335 1335 1336 1337 1338 1339 1340 1341 1342 1343 1344 1345 1346 1348 1350 1351 1352 1354 1355 1356 1358 1359 1361 1363 1364 1366 1368 1369 1371 1373 1374 1376 1378 1379 1381 1382 1384 1385
1355 1353 1350 1347 1345 1342 1340 1338 1336 1335 1333 1332 1330 1329 1328 1328 1329 1329 1330 1330 1331 1331 1331 1331 1332 1332 1332 1333 1334 1335 1336 1337 1338 1339 1340 1341 1342 1344 1345 1346 1347 1349 1350 1352 1353 1355 1357 1358 1360 1362 1364 1365 1367 1369 1371 1372 1374 1375 1377 1378 1380 1382 1384
1356 1353 1351 1347 1344 1341 1339 1337 1335 1334 1333 1332 1331 1330 1328 1328 1328 1329 1329 1329 1329 1329 1329 1329 1329 1330 1330 1330 1331 1332 1333 1333 1334 1335 1337 1338 1339 1340 1342 1343 1344 1346 1347 1349 1350 1352 1354 1356 1358 1360 1362 1364 1365 1367 1368 1370 1371 1373 1375 1376 1378 1380 1382
1356 1353 1350 1348 1344 1341 1339 1337 1335 1334 1333 1332 1331 1330 1329 1329 1329 1329 1328 1328 1328 1328 1328 1328 1328 1328 1328 1328 1329 1329 1330 1330 1330 1331 1332 1334 1335 1336 1338 1339 1340 1342 1344 1345 1348 1350 1352 1354 1356 1358 1360 1362 1364 1365 1366 1368 1369 1371 1373 1375 1377 1379 1381
1357 1354 1351 1347 1344 1341 1340 1338 1336 1335 1334 1332 1331 1331 1330 1330 1329 1329 1328 1328 1327 1327 1327 1327 1327 1327 1327 1327 1327 1327 1327 1327 1328 1328 1329 1330 1331 1332 1334 1335 1336 1338 1340 1343 1345 1347 1350 1352 1354 1356 1358 1360 1361 1363 1365 1366 1368 1369 1371 1373 1375 1377 1379
1357 1355 1352 1348 1344 1342 1341 1339 1337 1336 1335 1333 1332 1332 1331 1330 1330 1329 1328 1327 1327 1326 1326 1326 1326 1326 1326 1326 1326 1326 1326 1325 1325 1325 1325 1326 1327 1328 1331 1332 1334 1335 1337 1340 1342 1344 1346 1349 1351 1353 1355 1357 1359 1361 1362 1364 1366 1368 1370 1371 1373 1375 1377
1358 1356 1353 1349 1345 1344 1342 1340 1339 1338 1337 1335 1334 1332 1331 1330 1329 1328 1327 1327 1326 1325 1325 1325 1325 1325 1325 1325 1325 1325 1324 1324 1324 1323 1323 1323 1324 1325 1327 1329 1331 1332 1334 1336 1338 1340 1343 1345 1348 1350 1352 1354 1356 1358 1360 1362 1364 1366 1368 1370 1372 1374 1376
1359 1357 1353 1350 1347 1345 1344 1342 1341 1340 1338 1337 1335 1333 1332 1331 1329 1328 1327 1326 1326 1325 1325 1325 1324 1324 1324 1324 1324 1324 1323 1323 1323 1323 1322 1322 1322 1323 1324 1326 1328 1330 1332 1333 1335 1338 1340 1342 1344 1346 1349 1351 1353 1355 1358 1360 1362 1364 1366 1368 1370 1372 1374
1358 1356 1353 1350 1348 1346 1345 1343 1342 1341 1339 1337 1336 1334 1333 1331 1330 1328 1327 1326 1326 1325 1325 1324 1324 1323 1323 1323 1323 1323 1323 1323 1322 1322 1322 1322 1321 1322 1322 1324 1325 1328 1330 1331 1333 1336 1337 1339 1341 1343 1345 1347 1350 1352 1354 1357 1360 1362 1364 1366 1368 1370 1372
1357 1355 1353 1351 1349 1347 1345 1344 1342 1340 1339 1338 1336 1334 1333 1331 1330 1329 1328 1327 1326 1325 1324 1324 1323 1323 1323 1323 1323 1323 1323 1323 1322 1322 1322 1322 1322 1321 1322 1322 1324 1325 1327 1329 1331 1333 1335 1337 1338 1340 1342 1344 1347 1349 1352 1354 1357 1359 1361 1364 1367 1369 1370
1356 1354 1352 1350 1348 1347 1346 1344 1342 1341 1339 1338 1337 1335 1333 1332 1330 1329 1328 1327 1326 1326 1325 1324 1324 1324 1324 1324 1324 1324 1323 1323 1323 1323 1323 1323 1323 1322 1322 1323 1323 1324 1326 1327 1329 1331 1333 1334 1336 1338 1340 1343 1345 1348 1350 1352 1355 1357 1359 1362 1365 1367 1369
1356 1354 1352 1350 1348 1347 1345 1344 1343 1341 1340 1339 1337 1335 1333 1332 1331 1330 1329 1328 1327 1326 1326 1325 1325 1325 1325 1325 1325 1325 1325 1325 1325 1324 1324 1324 1324 1324 1324 1324 1324 1325 1326 1327 1328 1330 1332 1333 1335 1337 1340 1342 1344 1347 1349 1351 1353 1356 1358 1361 1363 1365 1367
1355 1353 1352 1350 1348 1347 1345 1344 1343 1342 1340 1339 1338 1336 1335 1334 1332 1331 1330 1329 1328 1327 1327 1327 1326 1326 1326 1326 1326 1326 1326 1326 1326 1326 1325 1325 1325 1325 1325 1325 1325 1326 1326 1327 1329 1330 1332 1333 1335 1337 1340 1342 1344 1346 1348 1350 1353 1355 1358 1360 1363 1364 1366
1355 1354 1352 1351 1349 1348 1346 1344 1343 1342 1341 1340 1339 1337 1336 1334 1333 1331 1331 1330 1329 1329 1329 1328 1328 1328 1328 1328 1328 1328 1328 1327 1327 1327 1326 1326 1326 1326 1325 1326 1326 1326 1327 1328 1330 1331 1332 1334 1336 1338 1340 1342 1344 1346 1348 1351 1353 1356 1358 1360 1362 1364 1366